Weather History for KCEU - June, 2013

Change the Weather History Date:

Sunday, June 23, 2013

  Actual Average (KAND) Record (KAND)
Temperature  
Mean Temperature 78 °F -  
Max Temperature 89 °F 89 °F - (-1)
Min Temperature 69 °F 67 °F - (-1)
Cooling Degree Days 14    
Growing Degree Days 28 (Base 50)    
Moisture  
Dew Point 66 °F    
Average Humidity 67    
Maximum Humidity 81    
Minimum Humidity 48    
Precipitation  
Precipitation 0.00 in - - ()
Sea Level Pressure  
Sea Level Pressure 30.17 in    
Wind  
Wind Speed 2 mph (East)    
Max Wind Speed 7 mph    
Max Gust Speed -    
Visibility 10 miles    
Events      
Averages and records for this station are not official NWS values.
T = Trace of Precipitation, MM = Missing Value Source: NWS Daily Summary

Daily Weather History Graph

Daily Weather History Graph

Search for Another Location

Airport or City:

Trip Planner

Search our weather history database for the weather conditions in past years. The results will help you decide how hot, cold, wet, or windy it might be!

Date:

Astronomy

Jun. 23, 2013 Rise Set
Actual Time 6:19 AM EDT 8:48 PM EDT
Civil Twilight 5:49 AM EDT 9:17 PM EDT
Nautical Twilight 5:13 AM EDT 9:54 PM EDT
Astronomical Twilight 4:33 AM EDT 10:34 PM EDT
Moon 9:03 PM EDT (6/23) 6:32 AM EDT (6/23)
Length of Visible Light 15h 27m
Length of Day
14h 28m
Full, 100% of the Moon is Illuminated
Jun 23
Full
Jun 30
Last Quarter
Jul 8
New
Jul 15
First Quarter
Jul 22
Full

Hourly Weather History & Observations

Time (EDT) Temp. Heat Index Dew Point Humidity Pressure Visibility Wind Dir Wind Speed Gust Speed Precip Events Conditions
12:54 AM 73.0 °F - 66.0 °F 79% 30.16 in 10.0 mi NNW 3.5 mph - N/A   Clear
1:54 AM 72.0 °F - 64.9 °F 78% 30.15 in 10.0 mi North 3.5 mph - N/A   Scattered Clouds
2:54 AM 71.1 °F - 64.0 °F 78% 30.14 in 10.0 mi NNW 4.6 mph - N/A   Mostly Cloudy
3:54 AM 70.0 °F - 64.0 °F 81% 30.13 in 10.0 mi Calm Calm - N/A   Clear
4:54 AM 69.1 °F - 63.0 °F 81% 30.14 in 10.0 mi Calm Calm - N/A   Clear
5:54 AM 69.1 °F - 62.1 °F 78% 30.15 in 10.0 mi Calm Calm - N/A   Partly Cloudy
6:54 AM 69.1 °F - 63.0 °F 81% 30.17 in 10.0 mi Calm Calm - N/A   Partly Cloudy
7:54 AM 73.0 °F - 64.0 °F 73% 30.19 in 10.0 mi NNE 4.6 mph - N/A   Scattered Clouds
8:54 AM 73.0 °F - 64.0 °F 73% 30.21 in 10.0 mi Calm Calm - N/A   Mostly Cloudy
9:54 AM 78.1 °F - 66.0 °F 66% 30.21 in 10.0 mi Calm Calm - N/A   Mostly Cloudy
10:54 AM 80.1 °F 82.1 °F 66.0 °F 62% 30.21 in 10.0 mi Calm Calm - N/A   Clear
11:17 AM 82.4 °F 84.6 °F 66.2 °F 58% 30.24 in 10.0 mi Variable 3.5 mph - N/A   Mostly Cloudy
11:27 AM 82.4 °F 84.6 °F 66.2 °F 58% 30.24 in 10.0 mi Calm Calm - N/A   Scattered Clouds
11:54 AM 84.0 °F 86.3 °F 66.0 °F 55% 30.20 in 10.0 mi ENE 5.8 mph - N/A   Clear
12:54 PM 84.9 °F 86.6 °F 64.9 °F 51% 30.19 in 10.0 mi ESE 4.6 mph - N/A   Clear
1:54 PM 86.0 °F 88.2 °F 66.0 °F 51% 30.17 in 10.0 mi ESE 3.5 mph - N/A   Scattered Clouds
2:54 PM 87.1 °F 89.2 °F 66.0 °F 49% 30.14 in 10.0 mi SSE 6.9 mph - N/A   Mostly Cloudy
3:54 PM 86.0 °F 88.8 °F 66.9 °F 53% 30.12 in 10.0 mi SSE 5.8 mph - N/A   Mostly Cloudy
4:54 PM 88.0 °F 90.3 °F 66.0 °F 48% 30.12 in 10.0 mi Calm Calm - N/A   Clear
5:54 PM 86.0 °F 88.2 °F 66.0 °F 51% 30.11 in 10.0 mi Calm Calm - N/A   Clear
6:54 PM 84.9 °F 88.2 °F 68.0 °F 57% 30.11 in 10.0 mi Calm Calm - N/A   Clear
7:54 PM 82.9 °F 86.5 °F 69.1 °F 63% 30.12 in 10.0 mi South 4.6 mph - N/A   Partly Cloudy
8:54 PM 80.1 °F 83.2 °F 70.0 °F 71% 30.13 in 10.0 mi South 3.5 mph - N/A   Clear
9:54 PM 78.1 °F - 69.1 °F 74% 30.15 in 10.0 mi Calm Calm - N/A   Clear
10:54 PM 78.1 °F - 69.1 °F 74% 30.17 in 10.0 mi Calm Calm - N/A   Scattered Clouds
11:06 PM 78.8 °F - 69.8 °F 74% 30.21 in 10.0 mi Calm Calm - N/A   Mostly Cloudy
11:46 PM 77.0 °F - 69.8 °F 78% 30.23 in 10.0 mi NE 5.8 mph - N/A   Scattered Clouds
11:54 PM 75.9 °F - 69.1 °F 79% 30.20 in 10.0 mi ENE 4.6 mph - N/A   Scattered Clouds